Total_Precipitation_Accumulation
0.17 0.40 0.81 1.28 2.44 2.73 2.08 1.17 0.75 0.58 0.57 0.66 0.63 0.61 0.83 1.20 1.67 2.52 2.13 1.44 1.01 1.00 1.25 1.59 1.75 1.75 1.74 1.63 1.78 1.99 2.10 2.26 2.38 2.65 3.06 3.18 3.36 3.54 3.62 4.00 4.41 4.68 4.75 4.66 4.67 4.47 4.06 3.79 3.29
0.38 0.76 1.12 1.61 2.67 2.74 2.05 1.05 0.70 0.52 0.55 0.64 0.72 0.68 0.64 0.78 0.74 1.00 1.46 1.44 0.98 1.03 1.26 1.46 1.54 1.60 1.62 1.55 1.72 1.96 2.08 2.24 2.38 2.56 2.86 2.99 3.15 3.39 3.75 4.10 4.15 4.43 4.49 4.47 4.20 3.89 3.58 3.22 2.76
0.61 0.88 1.29 1.83 1.89 1.76 1.49 0.91 0.64 0.56 0.55 0.68 0.73 0.57 0.63 0.92 0.82 1.01 1.23 1.16 0.98 0.96 1.16 1.45 1.45 1.51 1.54 1.63 1.90 2.10 2.16 2.27 2.38 2.54 2.77 2.96 3.07 3.21 3.66 3.98 3.93 4.03 3.97 3.75 3.47 3.37 3.20 2.73 2.45
0.70 0.99 1.23 1.34 0.99 0.74 0.68 0.62 0.57 0.61 0.64 0.61 0.67 0.72 0.77 0.92 0.88 0.98 1.03 0.94 0.85 0.87 1.01 1.36 1.43 1.30 1.39 1.75 1.99 2.02 2.09 2.18 2.31 2.52 2.75 2.92 2.92 3.09 3.43 3.51 3.50 3.41 3.36 3.25 3.25 3.17 2.95 2.51 2.33
0.65 1.13 1.26 0.92 0.57 0.53 0.57 0.58 0.61 0.71 0.70 0.75 0.86 0.98 1.18 1.11 0.89 1.01 1.11 1.02 0.89 0.92 0.99 1.19 1.31 1.19 1.31 1.57 1.78 1.84 1.89 2.06 2.25 2.50 2.70 2.85 2.91 3.00 3.11 3.07 3.00 2.97 2.86 2.79 2.87 2.91 2.73 2.52 2.47
0.87 1.12 0.92 0.61 0.47 0.50 0.55 0.56 0.58 0.65 0.71 0.90 0.96 0.97 1.31 1.29 1.00 1.05 1.09 1.30 1.13 0.85 0.83 0.97 1.25 1.23 1.28 1.44 1.71 1.89 1.84 1.93 2.12 2.26 2.50 2.60 2.55 2.56 2.69 2.90 2.91 2.72 2.48 2.38 2.45 2.55 2.53 2.51 2.54
0.83 0.94 0.67 0.45 0.39 0.43 0.40 0.46 0.59 0.67 0.79 0.90 0.79 0.86 1.36 1.55 1.23 1.11 1.08 1.15 1.02 0.79 0.80 0.92 1.08 1.11 1.25 1.56 1.79 1.93 1.97 2.08 2.11 2.15 2.37 2.45 2.41 2.41 2.49 2.68 2.71 2.44 2.22 2.11 2.07 1.94 1.80 1.77 1.96
0.56 0.63 0.46 0.34 0.28 0.32 0.27 0.29 0.46 0.66 0.77 0.70 0.70 0.99 1.52 1.47 1.04 1.00 1.05 1.13 1.07 0.97 0.96 1.06 1.14 1.06 1.07 1.37 1.79 2.04 2.18 2.28 2.35 2.42 2.55 2.62 2.70 2.62 2.61 2.39 2.35 2.28 2.09 1.99 1.88 1.74 1.51 1.43 1.48
0.33 0.46 0.36 0.23 0.19 0.24 0.23 0.26 0.36 0.54 0.60 0.67 0.83 0.95 1.11 0.95 0.81 0.99 1.20 1.43 1.53 1.34 1.25 1.25 1.15 1.10 1.14 1.26 1.54 1.86 2.18 2.53 2.76 2.81 2.72 2.80 2.93 2.84 2.92 2.52 2.51 2.35 2.14 2.08 2.08 1.91 1.63 1.47 1.44
0.35 0.42 0.31 0.16 0.14 0.18 0.19 0.27 0.42 0.64 0.79 1.02 1.33 1.37 1.12 0.98 0.94 1.09 1.37 1.55 1.86 1.67 1.37 1.34 1.21 1.23 1.21 1.13 1.37 1.73 1.83 2.22 2.55 2.65 2.62 2.82 3.04 3.09 2.67 3.01 3.12 2.88 2.72 2.56 2.54 2.55 2.17 1.72 1.65
0.21 0.22 0.13 0.09 0.09 0.11 0.16 0.24 0.35 0.54 0.95 1.43 1.53 1.34 1.12 1.21 1.27 1.32 1.63 1.75 1.72 1.58 1.60 1.61 1.48 1.48 1.47 1.60 1.44 1.64 1.92 2.21 2.30 2.27 2.49 2.89 2.85 2.83 2.70 2.90 3.34 3.37 3.27 3.12 3.12 3.07 2.53 2.30 2.48
0.11 0.08 0.06 0.07 0.08 0.10 0.12 0.15 0.27 0.53 1.00 1.14 1.11 1.05 1.07 1.28 1.36 1.49 1.84 1.93 1.99 1.87 2.12 2.26 2.01 2.05 1.96 1.79 1.66 1.65 1.80 2.09 2.28 2.54 2.63 2.80 3.10 3.18 3.04 3.06 3.17 3.31 3.37 3.76 3.58 3.43 3.10 2.95 2.77
0.09 0.07 0.05 0.06 0.08 0.12 0.11 0.17 0.34 0.68 0.87 0.75 0.66 0.91 1.01 1.34 1.68 1.91 2.16 2.05 2.37 2.55 2.82 3.02 2.63 2.59 2.50 2.51 2.42 2.10 2.21 2.36 2.57 2.84 3.01 3.04 3.31 3.50 3.49 3.33 3.21 2.99 3.02 3.37 3.63 3.50 3.51 3.35 3.11
0.08 0.07 0.06 0.07 0.09 0.11 0.16 0.28 0.45 0.74 0.68 0.62 0.78 1.19 1.40 1.39 1.70 2.11 2.27 2.40 2.79 3.02 3.21 3.39 3.30 3.35 3.23 3.01 3.05 3.01 2.64 2.77 2.82 2.94 3.05 3.17 3.41 3.87 4.00 3.80 3.63 3.19 3.05 3.11 3.43 3.54 3.79 3.67 3.43
0.10 0.13 0.15 0.15 0.15 0.15 0.22 0.55 0.67 0.76 0.63 0.66 0.89 1.24 1.58 1.52 1.70 2.02 2.24 2.75 3.48 3.86 3.82 3.89 3.88 4.20 4.12 3.72 3.39 3.10 2.92 2.88 3.13 3.21 3.29 3.34 3.59 4.04 4.02 3.78 3.39 3.04 3.01 3.24 3.28 3.32 3.61 3.43 3.30
0.14 0.24 0.36 0.31 0.22 0.21 0.31 0.90 0.97 0.81 0.91 0.97 1.14 1.31 1.59 1.64 1.70 1.96 2.45 3.27 4.16 4.72 4.66 4.47 4.06 4.48 4.55 4.29 4.08 3.69 3.42 3.47 3.49 3.23 3.36 3.29 3.45 3.43 3.53 3.25 2.92 2.94 3.10 3.26 3.46 3.39 3.49 3.49 3.55
0.25 0.32 0.39 0.38 0.27 0.25 0.36 1.02 1.05 0.77 1.00 1.25 1.16 1.30 1.53 1.70 1.85 1.99 2.58 3.45 4.33 5.17 5.41 5.37 5.26 5.05 4.85 4.67 4.53 4.34 4.18 3.90 3.52 3.38 3.49 3.20 2.88 2.71 2.94 2.95 2.94 2.83 2.99 3.07 2.85 3.27 3.56 3.60 3.62
0.30 0.30 0.35 0.40 0.32 0.30 0.45 0.83 0.92 0.89 1.03 1.18 1.17 1.19 1.32 1.59 2.01 2.13 2.45 3.21 4.17 5.09 5.68 5.88 5.98 5.71 5.26 4.79 4.43 4.36 4.14 3.90 3.62 3.40 3.42 3.01 2.78 2.57 2.88 2.88 2.86 2.82 3.00 3.11 3.19 3.49 3.64 3.33 3.29
0.22 0.26 0.35 0.39 0.33 0.36 0.57 0.82 0.88 0.95 1.16 1.28 1.30 1.27 1.34 1.61 2.06 2.23 2.53 3.02 3.83 4.63 5.35 5.52 5.89 5.49 4.88 4.33 3.92 3.82 3.68 3.38 3.25 3.13 3.10 3.05 2.84 2.78 3.02 2.89 3.01 2.83 2.89 2.88 2.95 3.24 3.37 3.00 3.05
0.18 0.25 0.35 0.35 0.26 0.32 0.63 1.01 1.09 1.09 1.06 1.13 1.19 1.24 1.32 1.67 2.14 2.47 2.99 3.38 3.42 3.99 4.73 4.82 4.55 4.40 3.99 3.65 3.52 3.37 3.35 3.01 2.83 2.72 2.89 2.72 2.61 2.73 2.74 2.89 2.75 2.68 2.84 2.85 2.93 3.20 3.14 2.83 3.00
0.19 0.24 0.29 0.29 0.28 0.38 0.64 1.20 1.47 1.30 0.99 0.87 0.93 1.03 1.17 1.46 1.98 2.40 2.79 3.23 3.22 3.62 3.74 3.40 3.28 3.40 3.36 3.21 3.15 3.06 3.10 2.92 2.70 2.58 2.67 2.53 2.34 2.41 2.48 2.45 2.51 2.64 2.40 2.66 2.95 3.07 3.09 3.04 2.92
0.17 0.15 0.16 0.18 0.29 0.53 0.68 1.43 1.80 1.51 1.13 0.91 0.93 1.10 1.18 1.24 1.43 1.72 2.02 2.44 2.66 2.78 2.70 2.67 2.68 2.78 3.00 3.01 2.83 2.70 2.49 2.43 2.41 2.36 2.45 2.51 2.26 2.13 2.16 2.18 2.38 2.51 2.48 2.79 2.50 2.65 2.91 3.12 2.90
0.13 0.11 0.13 0.21 0.31 0.56 0.76 1.22 1.74 1.62 1.45 1.23 1.10 1.13 1.08 1.06 1.14 1.28 1.33 1.54 1.84 2.10 2.18 2.18 2.52 2.66 2.70 2.72 2.72 2.78 2.52 2.39 2.39 2.53 2.77 2.71 2.37 2.02 1.86 2.00 2.23 2.39 2.47 2.58 2.53 2.64 2.64 2.68 2.70
0.12 0.14 0.24 0.42 0.59 0.99 0.96 1.12 1.60 1.43 1.26 1.24 1.07 0.91 0.86 0.85 0.90 1.10 1.12 1.14 1.28 1.42 1.58 1.74 2.09 2.35 2.43 2.39 2.39 2.46 2.50 2.54 2.39 2.38 2.50 2.44 2.30 2.09 1.90 1.93 2.20 2.30 2.39 2.47 2.51 2.50 2.43 2.52 2.60
0.13 0.21 0.54 1.00 1.32 1.47 1.01 0.99 1.26 1.03 1.03 1.14 0.90 0.63 0.59 0.68 0.72 0.90 0.90 0.95 1.08 1.10 1.20 1.45 1.73 1.92 2.00 2.06 2.13 2.21 2.43 2.43 2.25 2.08 2.18 2.23 2.10 2.02 2.02 1.98 2.31 2.46 2.45 2.39 2.51 2.51 2.46 2.59 2.67
0.14 0.17 0.38 0.66 0.87 1.05 1.07 1.42 1.33 0.86 0.82 0.73 0.56 0.45 0.43 0.59 0.67 0.73 0.68 0.71 0.90 0.99 1.06 1.24 1.41 1.52 1.64 1.85 2.06 2.06 2.20 2.06 1.98 2.18 2.07 1.98 1.80 1.89 2.16 2.27 2.29 2.31 2.35 2.33 2.64 2.46 2.46 2.57 2.60
0.10 0.11 0.16 0.28 0.39 0.73 1.18 1.55 1.29 0.83 0.78 0.64 0.48 0.41 0.45 0.49 0.63 0.65 0.62 0.62 0.67 0.76 0.91 1.15 1.42 1.44 1.45 1.57 1.81 1.89 1.86 1.89 2.02 2.25 2.17 2.00 1.94 1.86 2.10 2.25 2.34 2.29 2.31 2.47 2.72 2.66 2.68 2.79 2.67
0.09 0.11 0.14 0.24 0.41 0.68 1.06 1.44 1.54 1.24 0.91 0.65 0.56 0.56 0.64 0.63 0.70 0.76 0.67 0.68 0.69 0.70 0.86 0.98 1.15 1.37 1.54 1.51 1.52 1.51 1.76 1.83 1.97 2.07 1.98 1.97 1.98 2.04 2.15 2.15 2.18 2.15 2.15 2.33 2.72 2.71 2.73 2.93 2.88
0.11 0.12 0.13 0.18 0.27 0.47 0.89 1.14 1.05 1.03 0.81 0.67 0.68 0.81 0.72 0.66 0.69 0.75 0.61 0.62 0.65 0.73 0.81 0.95 1.09 1.35 1.54 1.43 1.44 1.57 1.73 1.82 1.90 2.06 2.04 2.00 2.02 2.12 2.15 2.16 2.17 2.09 1.99 2.13 2.37 2.46 2.68 2.81 2.87
0.12 0.13 0.15 0.20 0.23 0.25 0.49 0.80 0.67 0.74 0.76 0.84 0.86 0.82 0.78 0.78 0.78 0.82 0.75 0.85 0.88 0.98 1.00 1.05 1.13 1.31 1.44 1.44 1.51 1.60 1.70 1.76 1.84 1.93 2.05 2.11 2.09 2.19 2.23 2.25 2.20 2.02 2.01 2.13 2.23 2.35 2.57 2.70 2.79